STARLINK-35407

Last updated on Sun Dec 07 2025 00:02:05 GMT+0000 (Coordinated Universal Time)

1 66334U 25253R 25340.58335648 .00089907 00000+0 21374-2 0 9996 2 66334 43.0008 21.1152 0001536 267.9039 65.0639 15.40656038 5947
UTC large
Height (km)
Speed (km/s)
/
Latitude / Longitude
Inclination (degrees)
Orbital Period (minutes)
Azimuth
Elevation
Range (km)
Doppler Factor

Next 0 passes for location: London (51.5072 / 0.1276)

Sorry there are no passes over London.